Location: Waco, TX
(31.5480°N, 97.1670°W)
Time: 16:48:47
(UTC-06:00)

ISS - Pass Details

Date: 12 January 2018
Orbit: 402 x 407 km, 51.6° (Epoch: 20 January)

Event Time Altitude Azimuth Distance (km) Brightness Sun altitude
Rises 07:06:57 0° 327° (NNW) 2,324 - -5.1°
Exits shadow 07:07:22 - 329° (NNW) 2,166 -0.6 -5.0°
Reaches altitude 10° 07:09:19 10° 342° (NNW) 1,463 -1.4 -4.7°
Maximum altitude 07:12:01 23° 38° (NE) 906 -1.9 -4.1°
Drops below altitude 10° 07:14:43 10° 94° (E) 1,459 0.5 -3.6°
Sets 07:17:04 0° 109° (ESE) 2,317 3.0 -3.1°
